Northeast Philadelphia, PA

11:15 PM EDT on October 23, 2019 (GMT -0400)
Northeast Philadelphia

Weather History for KPNE - August, 2019

Change the Weather History Date:

Sunday, August 11, 2019

  Actual Average Record
Temperature  
Mean Temperature 74 °F -  
Max Temperature 84 °F 83 °F 95 °F (2005)
Min Temperature 63 °F 66 °F 59 °F (1996)
Cooling Degree Days 8    
Growing Degree Days 24 (Base 50)    
Moisture  
Dew Point 54 °F    
Average Humidity 51    
Maximum Humidity 73    
Minimum Humidity 31    
Precipitation  
Precipitation 0.00 in - - ()
Sea Level Pressure  
Sea Level Pressure 30.02 in    
Wind  
Wind Speed 3 mph (WNW)    
Max Wind Speed 12 mph    
Max Gust Speed -    
Visibility 10 miles    
Events      
Averages and records for this station are not official NWS values.
T = Trace of Precipitation, MM = Missing Value Source: NWS Daily Summary

Daily Weather History Graph

Daily Weather History Graph

Search for Another Location

Airport or City:

Astronomy

Aug. 11, 2019 Rise Set
Actual Time 6:07 AM EDT 8:02 PM EDT
Civil Twilight 5:38 AM EDT 8:31 PM EDT
Nautical Twilight 5:02 AM EDT 9:07 PM EDT
Astronomical Twilight 4:23 AM EDT 9:45 PM EDT
Moon 5:39 PM EDT (8/11) 2:25 AM EDT (8/11)
Length of Visible Light 14h 53m
Length of Day
13h 54m
Waxing Gibbous, 87% of the Moon is Illuminated
Aug 11
Waxing Gibbous
Aug 15
Full
Aug 23
Last Quarter
Aug 30
New
Sep 5
First Quarter

Hourly Weather History & Observations

Time (EDT) Temp. Heat Index Dew Point Humidity Pressure Visibility Wind Dir Wind Speed Gust Speed Precip Events Conditions
12:54 AM 68.0 °F - 55.9 °F 65% 29.98 in 10.0 mi Calm Calm - N/A   Clear
1:54 AM 66.9 °F - 57.0 °F 70% 29.98 in 10.0 mi Calm Calm - N/A   Clear
2:54 AM 64.9 °F - 55.9 °F 73% 29.97 in 10.0 mi West 3.5 mph - N/A   Clear
3:54 AM 64.0 °F - 55.0 °F 73% 29.98 in 10.0 mi WNW 4.6 mph - N/A   Clear
4:54 AM 64.0 °F - 55.0 °F 73% 29.99 in 10.0 mi NNW 3.5 mph - N/A   Clear
5:54 AM 63.0 °F - 54.0 °F 72% 30.01 in 10.0 mi Calm Calm - N/A   Clear
6:54 AM 66.0 °F - 53.1 °F 63% 30.03 in 10.0 mi NW 5.8 mph - N/A   Clear
7:54 AM 70.0 °F - 54.0 °F 57% 30.05 in 10.0 mi NW 6.9 mph - N/A   Clear
8:54 AM 73.9 °F - 55.0 °F 52% 30.06 in 10.0 mi North 5.8 mph - N/A   Clear
9:54 AM 75.9 °F - 54.0 °F 46% 30.06 in 10.0 mi Variable 3.5 mph - N/A   Clear
10:54 AM 79.0 °F - 54.0 °F 42% 30.06 in 10.0 mi North 6.9 mph - N/A   Clear
11:54 AM 81.0 °F 80.4 °F 53.1 °F 38% 30.06 in 10.0 mi NNE 5.8 mph - N/A   Partly Cloudy
12:54 PM 82.0 °F - 52.0 °F 35% 30.06 in 10.0 mi West 8.1 mph - N/A   Scattered Clouds
1:54 PM 81.0 °F - 51.1 °F 35% 30.05 in 10.0 mi Variable 3.5 mph - N/A   Scattered Clouds
2:54 PM 82.9 °F 81.8 °F 53.1 °F 36% 30.03 in 10.0 mi WNW 11.5 mph - N/A   Scattered Clouds
3:54 PM 82.0 °F - 50.0 °F 33% 30.02 in 10.0 mi West 4.6 mph - N/A   Partly Cloudy
4:54 PM 84.0 °F - 50.0 °F 31% 30.01 in 10.0 mi West 8.1 mph - N/A   Clear
5:54 PM 82.9 °F - 50.0 °F 32% 30.01 in 10.0 mi NW 9.2 mph - N/A   Clear
6:54 PM 82.0 °F - 51.1 °F 34% 30.01 in 10.0 mi West 5.8 mph - N/A   Clear
7:54 PM 79.0 °F - 52.0 °F 39% 30.01 in 10.0 mi WNW 5.8 mph - N/A   Clear
8:54 PM 75.0 °F - 54.0 °F 48% 30.03 in 10.0 mi West 4.6 mph - N/A   Clear
9:54 PM 73.9 °F - 54.0 °F 50% 30.03 in 10.0 mi Calm Calm - N/A   Clear
10:54 PM 71.1 °F - 55.9 °F 59% 30.02 in 10.0 mi Calm Calm - N/A   Clear
11:54 PM 68.0 °F - 55.9 °F 65% 30.03 in 10.0 mi Calm Calm - N/A   Clear